Regional Weather Roundup
Issued by NWS

Home | Current Version | Previous Version | Text Only | Print | Product List | Glossary On
Versions: 1 2 3 4 5 6 7 8 9 10 11 12 13 14 15 16 17 18 19 20 21 22 23 24 25 26 27 28 29 30 31 32 33 34 35 36 37 38 39 40 41 42 43 44 45 46 47 48 49 50
000
ASUS44 KLIX 201810
RWRLA
LOUISIANA WEATHER ROUNDUP
NATIONAL WEATHER SERVICE NEW ORLEANS LA
100 PM CDT SAT SEP 20 2014

NOTE: "FAIR" INDICATES FEW OR NO CLOUDS BELOW 12,000 FEET WITH NO
      SIGNIFICANT WEATHER AND/OR OBSTRUCTIONS TO VISIBILITY.
      SKY/WX - SKY CONDITION AND SIGNIFICANT WEATHER.
      TMP - AIR TEMPERATURE.    DP   - DEWPOINT TEMPERATURE.
      RH  - RELATIVE HUMIDITY.  PRES - PRESSURE.
      HX  - HEAT INDEX.         WCI  - WIND CHILL INDEX.

*  THESE STATIONS ARE NOT NWS OR FAA STATIONS AND ARE NOT UNDER
   NWS QUALITY CONTROL.

LAZ040-048-061>063-065-066-069-201900-
SOUTHEAST LOUISIANA

CITY           SKY/WX    TMP DP  RH WIND       PRES   REMARKS
N.O. AUDUBON     N/A     86  73  65 MISG        N/A
6HR MIN TEMP:  77; 6HR MAX TEMP:  87;

N.O. INTL ARPT MOSUNNY   85  67  54 NE14G24   29.98F
6HR MIN TEMP:  78; 6HR MAX TEMP:  87;

N.O. LAKEFRONT MOSUNNY   85  70  60 E16       29.99F
6HR MIN TEMP:  77; 6HR MAX TEMP:  85;

N.O. DOWNTOWN* FAIR      84  68  58 NE10G18   29.99F
6HR MIN TEMP:  75; 6HR MAX TEMP:  84;

SLIDELL        MOSUNNY   87  67  51 E9        29.99F
6HR MIN TEMP:  71; 6HR MAX TEMP:  88;

BATON ROUGE    MOSUNNY   87  69  54 NE13      29.99F
6HR MIN TEMP:  69; 6HR MAX TEMP:  87;

BOOTHVILLE     MOSUNNY   85  73  67 E15G23    29.97F
6HR MIN TEMP:  80; 6HR MAX TEMP:  85; 6HR PCP: TRACE;

BELLE CHASSE   MOSUNNY   85  71  63 E15       29.98F
6HR MIN TEMP:  76; 6HR MAX TEMP:  87; 6HR PCP:  0.01;

BOGALUSA*      FAIR      88  67  49 NE9       30.02F
6HR MIN TEMP:  69; 6HR MAX TEMP:  89;

GALLIANO*      NOT AVBL
NEW ROADS*     MOCLDY    87  68  54 NE6       30.00F
6HR MIN TEMP:  68; 6HR MAX TEMP:  87;

GONZALES*      FAIR      86  68  55 E8G17     29.98F
6HR MIN TEMP:  71; 6HR MAX TEMP:  87;

HAMMOND*       MOSUNNY   88  64  45 E10       30.01F
HOUMA*         PTSUNNY   88  54  31 E14       29.97F
PORT FOURCHON* PTCLDY    84  72  65 E16G25    29.98F

$$

LAZ041-044-053-054-201900-
SOUTHWEST LOUISIANA

CITY           SKY/WX    TMP DP  RH WIND       PRES   REMARKS
LAKE CHARLES   MOSUNNY   87  72  60 E12       29.97F
6HR MIN TEMP:  71; 6HR MAX TEMP:  87;

LAFAYETTE      PTSUNNY   86  71  60 E8        29.98F
6HR MIN TEMP:  70; 6HR MAX TEMP:  87;

PATTERSON      MOSUNNY   88  73  62 E13G18    29.99F HX  96
6HR MIN TEMP:  72; 6HR MAX TEMP:  90;

SALT POINT       N/A     87  73  62 VRB7      29.96S
6HR MIN TEMP:  75; 6HR MAX TEMP:  90; 6HR PCP:  0.02;

NEW IBERIA     MOSUNNY   88  72  58 NE14      29.98F
6HR MIN TEMP:  73; 6HR MAX TEMP:  88;

CHENAULT AIRPK PTSUNNY   86  72  62 E9        29.98F

$$

LAZ027-028-201900-
CENTRAL LOUISIANA

CITY           SKY/WX    TMP DP  RH WIND       PRES   REMARKS
FORT POLK      SUNNY     86  67  52 SE12      30.00F
6HR MIN TEMP:  68; 6HR MAX TEMP:  87;

ALEXANDRIA INT SUNNY     87  68  52 E10       29.99F
6HR MIN TEMP:  66; 6HR MAX TEMP:  88;

ALEXANDRIA     MOSUNNY   88  70  55 E7        30.01F
6HR MIN TEMP:  66; 6HR MAX TEMP:  89;


$$

LAZ001-002-201900-
NORTHWEST LOUISIANA

CITY           SKY/WX    TMP DP  RH WIND       PRES   REMARKS
SHREVEPORT     MOSUNNY   89  66  46 E6        30.01F
6HR MIN TEMP:  69; 6HR MAX TEMP:  91;

BARKSDALE AFB  MOSUNNY   90  66  44 E7        30.02F
6HR MIN TEMP:  69; 6HR MAX TEMP:  90; 6HR PCP: TRACE;

DTN SHREVEPORT MOSUNNY   88  66  48 S7        30.02F
6HR MIN TEMP:  69; 6HR MAX TEMP:  89;


$$

LAZ014-016-201900-
NORTHEAST LOUISIANA

CITY           SKY/WX    TMP DP  RH WIND       PRES   REMARKS
MONROE         PTSUNNY   90  69  50 NE5       30.03F
6HR MIN TEMP:  66; 6HR MAX TEMP:  90;

TALLULAH       SUNNY     89  68  49 E7        30.02F
6HR MIN TEMP:  65; 6HR MAX TEMP:  89;


$$




USA.gov is the U.S. government's official web portal to all federal, state and local government web resources and services.